Regional Weather Roundup
Issued by NWS

Home | Current Version | Previous Version | Text Only | Print | Product List | Glossary Off
Versions: 1 2 3 4 5 6 7 8 9 10 11 12 13 14 15 16 17 18 19 20 21 22 23 24 25 26 27 28 29 30 31 32 33 34 35 36 37 38 39 40 41 42 43 44 45 46 47 48 49 50

000
ASUS43 KOAX 281110
RWRNE

WEATHER ROUNDUP FOR NEBRASKA
NATIONAL WEATHER SERVICE OMAHA NE
600 AM CDT SUN MAY 28 2017

NOTES: SATELLITE DATA IS BEING USED TO AUGMENT CLOUD COVER ABOVE
       12000 FEET.
       "FAIR" INDICATES FEW OR NO CLOUDS BELOW 12,000 FEET WITH NO
       SIGNIFICANT WEATHER AND/OR OBSTRUCTIONS TO VISIBILITY.

  * THESE STATIONS DO NOT REPORT WEATHER SUCH AS RAIN...SNOW OR FOG.

NEZ001>004-019>022-054>056-281200-
NEBRASKA PANHANDLE

CITY           SKY/WX    TMP DP  RH WIND       PRES   REMARKS
SCOTTSBLUFF    CLEAR     42  38  85 NW8       30.15S
ALLIANCE       CLEAR     39  37  92 W10       30.10S WCI  32
CHADRON        PTCLDY    45  40  82 W7        30.08F
GORDON         FAIR      48  40  75 W10       30.05S
KIMBALL        CLEAR     41  36  81 W8        30.19S
SIDNEY         PTCLDY    43  38  82 W13       30.16R
$$

NEZ057>060-069>072-079>082-281200-
SOUTHWEST NEBRASKA

CITY           SKY/WX    TMP DP  RH WIND       PRES   REMARKS
NORTH PLATTE   CLEAR     42  41  96 NW6       30.05R
IMPERIAL       CLEAR     48  40  73 W13       30.09R
LEXINGTON      PTCLDY    46  43  91 NW8       30.02S
MCCOOK         CLEAR     47  45  93 W10       30.06R
OGALLALA       CLEAR     46  42  85 W9        30.09R
$$

NEZ005>010-023>029-035>040-094-281200-
NORTH CENTRAL NEBRASKA

CITY           SKY/WX    TMP DP  RH WIND       PRES   REMARKS
VALENTINE      CLEAR     49  42  77 W8        29.98S
AINSWORTH      CLEAR     51  45  78 W8        29.97S
BROKEN BOW     CLEAR     53  44  71 NW12      29.99R
O`NEILL        CLEAR     51  45  79 W9        29.93R
ORD            CLEAR     46  41  82 NW7       29.96R
THEDFORD       CLEAR     48  44  87 W8        30.03R
$$

NEZ041-046>049-061>064-073>077-083>087-281200-
SOUTH CENTRAL NEBRASKA

CITY           SKY/WX    TMP DP  RH WIND       PRES   REMARKS
GRAND ISLAND   CLEAR     52  49  89 W10       29.96S
AURORA         CLEAR     54  49  86 W12       29.95S
HASTINGS       CLEAR     53  48  83 W12       29.98S
HEBRON         CLEAR     54  51  90 W3        29.95F
HOLDREGE       CLEAR     51  45  77 W9        30.00S
KEARNEY *      CLEAR     54  45  71 W9        29.99S
YORK           CLEAR     54  50  87 W10       29.93S
$$

NEZ011>018-030>034-042>045-281200-
NORTHEAST NEBRASKA

CITY           SKY/WX    TMP DP  RH WIND       PRES   REMARKS
NORFOLK        CLEAR     49  45  86 W7        29.90S
ALBION         CLEAR     50  44  80 NW7       29.93S
BLAIR          CLEAR     52  50  90 SW6       29.87F
FREMONT        CLEAR     54  51  90 W8        29.89S
TEKAMAH        CLEAR     53  48  83 CALM      29.87S
WAYNE          CLEAR     53  49  88 W6        29.89S
$$

NEZ050>053-065>068-078-088>093-281200-
SOUTHEAST NEBRASKA

CITY           SKY/WX    TMP DP  RH WIND       PRES   REMARKS
LINCOLN        CLEAR     53  50  89 CALM      29.93S
OMAHA EPPLEY   PTCLDY    55  50  83 VRB3      29.88S
BEATRICE       CLEAR     53  52  95 W7        29.92F
FALLS CITY     CLEAR     56  53  90 NW7       29.89S
NEBRASKA CITY  CLEAR     55  53  90 W7        29.90S
PLATTSMOUTH    CLEAR     56  52  85 SW5       29.89S
$$

NEZ044-045-051>053-067-281200-
OMAHA AREA

CITY           SKY/WX    TMP DP  RH WIND       PRES   REMARKS
OMAHA EPPLEY   PTCLDY    55  50  83 VRB3      29.88S
BLAIR          CLEAR     52  50  90 SW6       29.87F
FREMONT        CLEAR     54  51  90 W8        29.89S
MILLARD        CLEAR     53  52  96 CALM      29.89F FOG
OFFUTT AFB     CLEAR     54  50  87 W3        29.88F
PLATTSMOUTH    CLEAR     56  52  85 SW5       29.89S
WAHOO          FAIR      55  49  80 W6        29.90R
$$




USA.gov is the U.S. government's official web portal to all federal, state and local government web resources and services.